Time,TemperatureF,DewpointF,PressureIn,WindDirection,WindDirectionDegrees,WindSpeedMPH,WindSpeedGustMPH,Humidity,HourlyPrecipIn,Conditions,Clouds,dailyrainin,SoftwareType,DateUTC
2013-11-02 00:01:00,53.3,44.0,28.99,WSW,247,5.0,9.0,73,0.00,,,0.00,Rainwise IP-100,2013-11-02 04:01:00,
2013-11-02 00:06:00,53.3,44.0,28.99,WSW,247,10.0,10.0,72,0.00,,,0.00,Rainwise IP-100,2013-11-02 04:06:00,
2013-11-02 00:11:00,53.0,44.0,28.99,WNW,292,9.0,10.0,73,0.00,,,0.00,Rainwise IP-100,2013-11-02 04:11:00,
2013-11-02 00:16:00,53.2,44.0,28.98,WSW,247,5.0,12.0,72,0.00,,,0.00,Rainwise IP-100,2013-11-02 04:16:00,
2013-11-02 00:21:00,52.8,44.0,28.98,West,270,2.0,8.0,73,0.00,,,0.00,Rainwise IP-100,2013-11-02 04:21:00,
2013-11-02 00:26:00,52.2,44.0,28.98,WSW,247,4.0,7.0,75,0.00,,,0.00,Rainwise IP-100,2013-11-02 04:26:00,
2013-11-02 00:31:00,51.9,44.0,28.97,West,270,3.0,9.0,75,0.00,,,0.00,Rainwise IP-100,2013-11-02 04:31:00,
2013-11-02 00:37:00,51.6,45.0,28.97,WSW,247,0.0,7.0,78,0.00,,,0.00,Rainwise IP-100,2013-11-02 04:37:00,
2013-11-02 00:42:00,50.7,45.0,28.97,WNW,292,3.0,5.0,81,0.00,,,0.00,Rainwise IP-100,2013-11-02 04:42:00,
2013-11-02 00:47:00,50.1,45.0,28.97,West,270,0.0,6.0,83,0.00,,,0.00,Rainwise IP-100,2013-11-02 04:47:00,
2013-11-02 00:52:00,49.3,45.0,28.97,West,270,0.0,5.0,87,0.00,,,0.00,Rainwise IP-100,2013-11-02 04:52:00,
2013-11-02 00:57:00,49.0,46.0,28.97,West,270,3.0,6.0,88,0.00,,,0.00,Rainwise IP-100,2013-11-02 04:57:00,
2013-11-02 01:02:00,48.7,45.0,28.97,West,270,0.0,3.0,87,0.00,,,0.00,Rainwise IP-100,2013-11-02 05:02:00,
2013-11-02 01:07:00,48.2,45.0,28.97,West,270,0.0,0.0,87,0.00,,,0.00,Rainwise IP-100,2013-11-02 05:07:00,
2013-11-02 01:12:00,47.5,45.0,28.97,West,270,0.0,0.0,90,0.00,,,0.00,Rainwise IP-100,2013-11-02 05:12:00,
2013-11-02 01:18:00,46.5,45.0,28.97,West,270,0.0,5.0,93,0.00,,,0.00,Rainwise IP-100,2013-11-02 05:18:00,
2013-11-02 01:23:00,45.6,46.0,28.97,WNW,292,2.0,3.0,99,0.00,,,0.00,Rainwise IP-100,2013-11-02 05:23:00,
2013-11-02 01:28:00,44.5,45.0,28.97,WNW,292,0.0,2.0,99,0.00,,,0.00,Rainwise IP-100,2013-11-02 05:28:00,
2013-11-02 01:33:00,43.7,44.0,28.97,WNW,292,2.0,4.0,99,0.00,,,0.00,Rainwise IP-100,2013-11-02 05:33:00,
2013-11-02 01:38:00,42.9,42.0,28.96,WNW,292,3.0,5.0,96,0.00,,,0.00,Rainwise IP-100,2013-11-02 05:38:00,
2013-11-02 01:43:00,42.3,40.0,28.96,WNW,292,2.0,5.0,94,0.00,,,0.00,Rainwise IP-100,2013-11-02 05:43:00,
2013-11-02 01:48:00,41.9,40.0,28.96,WNW,292,2.0,3.0,91,0.00,,,0.00,Rainwise IP-100,2013-11-02 05:48:00,
2013-11-02 01:54:00,41.9,39.0,28.95,WNW,292,3.0,3.0,90,0.00,,,0.00,Rainwise IP-100,2013-11-02 05:54:00,
2013-11-02 01:59:00,41.9,39.0,28.95,WNW,292,0.0,4.0,88,0.00,,,0.00,Rainwise IP-100,2013-11-02 05:59:00,
2013-11-02 02:04:00,41.6,39.0,28.95,WNW,292,0.0,3.0,88,0.00,,,0.00,Rainwise IP-100,2013-11-02 06:04:00,
2013-11-02 02:09:00,41.6,37.0,28.95,WSW,247,2.0,4.0,81,0.00,,,0.00,Rainwise IP-100,2013-11-02 06:09:00,
2013-11-02 02:14:00,41.9,38.0,28.94,WNW,292,0.0,5.0,85,0.00,,,0.00,Rainwise IP-100,2013-11-02 06:14:00,
2013-11-02 02:19:00,42.6,39.0,28.94,WSW,247,1.0,7.0,84,0.00,,,0.00,Rainwise IP-100,2013-11-02 06:19:00,
2013-11-02 02:24:00,43.6,41.0,28.94,West,270,5.0,7.0,89,0.00,,,0.00,Rainwise IP-100,2013-11-02 06:24:00,
2013-11-02 02:29:00,44.7,43.0,28.93,West,270,0.0,6.0,92,0.00,,,0.00,Rainwise IP-100,2013-11-02 06:29:00,
2013-11-02 02:35:00,44.4,42.0,28.93,West,270,3.0,3.0,94,0.00,,,0.00,Rainwise IP-100,2013-11-02 06:35:00,
2013-11-02 02:40:00,43.8,43.0,28.93,NNW,337,1.0,4.0,95,0.00,,,0.00,Rainwise IP-100,2013-11-02 06:40:00,
2013-11-02 02:45:00,43.4,42.0,28.92,NW,315,0.0,4.0,96,0.00,,,0.00,Rainwise IP-100,2013-11-02 06:45:00,
2013-11-02 02:50:00,42.4,41.0,28.92,NW,315,0.0,2.0,96,0.00,,,0.00,Rainwise IP-100,2013-11-02 06:50:00,
2013-11-02 02:55:00,41.5,41.0,28.92,NW,315,0.0,3.0,95,0.00,,,0.00,Rainwise IP-100,2013-11-02 06:55:00,
2013-11-02 03:00:00,40.8,38.0,28.92,NW,315,2.0,3.0,90,0.00,,,0.00,Rainwise IP-100,2013-11-02 07:00:00,
2013-11-02 03:05:00,40.2,37.0,28.93,NW,315,0.0,3.0,89,0.00,,,0.00,Rainwise IP-100,2013-11-02 07:05:00,
2013-11-02 03:11:00,39.7,38.0,28.93,NW,315,0.0,0.0,90,0.00,,,0.00,Rainwise IP-100,2013-11-02 07:11:00,
2013-11-02 03:16:00,39.2,36.0,28.93,NW,315,0.0,0.0,89,0.00,,,0.00,Rainwise IP-100,2013-11-02 07:16:00,
2013-11-02 03:21:00,39.1,31.0,28.93,NW,315,1.0,5.0,70,0.00,,,0.00,Rainwise IP-100,2013-11-02 07:21:00,
2013-11-02 03:26:00,39.0,29.0,28.93,NW,315,1.0,3.0,68,0.00,,,0.00,Rainwise IP-100,2013-11-02 07:26:00,
2013-11-02 03:30:00,38.9,29.0,28.93,NW,315,0.0,3.0,68,0.00,,,0.00,Rainwise IP-100,2013-11-02 07:30:00,
2013-11-02 03:35:00,38.9,29.0,28.93,NW,315,1.0,3.0,68,0.00,,,0.00,Rainwise IP-100,2013-11-02 07:35:00,
2013-11-02 03:40:00,38.6,29.0,28.93,NW,315,1.0,3.0,68,0.00,,,0.00,Rainwise IP-100,2013-11-02 07:40:00,
2013-11-02 03:45:00,38.2,29.0,28.93,NW,315,0.0,2.0,70,0.00,,,0.00,Rainwise IP-100,2013-11-02 07:45:00,
2013-11-02 03:50:00,38.1,29.0,28.93,SW,225,3.0,3.0,69,0.00,,,0.00,Rainwise IP-100,2013-11-02 07:50:00,
2013-11-02 03:56:00,38.4,28.0,28.93,WSW,247,2.0,4.0,67,0.00,,,0.00,Rainwise IP-100,2013-11-02 07:56:00,
2013-11-02 04:01:00,38.5,29.0,28.93,WSW,247,0.0,3.0,67,0.00,,,0.00,Rainwise IP-100,2013-11-02 08:01:00,
2013-11-02 04:06:00,38.1,28.0,28.93,WSW,247,0.0,1.0,66,0.00,,,0.00,Rainwise IP-100,2013-11-02 08:06:00,
2013-11-02 04:11:00,38.0,28.0,28.93,WNW,292,1.0,3.0,65,0.00,,,0.00,Rainwise IP-100,2013-11-02 08:11:00,
2013-11-02 04:16:00,37.8,28.0,28.93,NNW,337,3.0,4.0,64,0.00,,,0.00,Rainwise IP-100,2013-11-02 08:16:00,
2013-11-02 04:21:00,37.7,26.0,28.93,NNW,337,0.0,4.0,63,0.00,,,0.00,Rainwise IP-100,2013-11-02 08:21:00,
2013-11-02 04:26:00,37.3,26.0,28.93,NNW,337,0.0,0.0,64,0.00,,,0.00,Rainwise IP-100,2013-11-02 08:26:00,
2013-11-02 04:32:00,36.9,26.0,28.93,NW,315,1.0,3.0,64,0.00,,,0.00,Rainwise IP-100,2013-11-02 08:32:00,
2013-11-02 04:37:00,36.8,26.0,28.93,NW,315,1.0,2.0,63,0.00,,,0.00,Rainwise IP-100,2013-11-02 08:37:00,
2013-11-02 04:42:00,36.7,26.0,28.93,NW,315,0.0,1.0,63,0.00,,,0.00,Rainwise IP-100,2013-11-02 08:42:00,
2013-11-02 04:47:00,36.8,26.0,28.92,NW,315,1.0,3.0,62,0.00,,,0.00,Rainwise IP-100,2013-11-02 08:47:00,
2013-11-02 04:52:00,36.6,26.0,28.92,West,270,3.0,3.0,62,0.00,,,0.00,Rainwise IP-100,2013-11-02 08:52:00,
2013-11-02 04:57:00,36.9,26.0,28.92,West,270,4.0,4.0,62,0.00,,,0.00,Rainwise IP-100,2013-11-02 08:57:00,
2013-11-02 05:02:00,37.5,26.0,28.93,West,270,0.0,4.0,60,0.00,,,0.00,Rainwise IP-100,2013-11-02 09:02:00,
2013-11-02 05:07:00,37.5,26.0,28.93,West,270,2.0,3.0,60,0.00,,,0.00,Rainwise IP-100,2013-11-02 09:07:00,
2013-11-02 05:13:00,37.4,24.0,28.93,West,270,0.0,2.0,59,0.00,,,0.00,Rainwise IP-100,2013-11-02 09:13:00,
2013-11-02 05:18:00,36.8,24.0,28.93,West,270,2.0,2.0,59,0.00,,,0.00,Rainwise IP-100,2013-11-02 09:18:00,
2013-11-02 05:23:00,36.5,24.0,28.93,West,270,0.0,2.0,60,0.00,,,0.00,Rainwise IP-100,2013-11-02 09:23:00,
2013-11-02 05:28:00,36.3,24.0,28.93,West,270,0.0,2.0,61,0.00,,,0.00,Rainwise IP-100,2013-11-02 09:28:00,
2013-11-02 05:33:00,35.9,24.0,28.93,West,270,0.0,0.0,61,0.00,,,0.00,Rainwise IP-100,2013-11-02 09:33:00,
2013-11-02 05:38:00,35.7,24.0,28.93,West,270,0.0,0.0,61,0.00,,,0.00,Rainwise IP-100,2013-11-02 09:38:00,
2013-11-02 05:43:00,35.5,24.0,28.93,West,270,0.0,0.0,61,0.00,,,0.00,Rainwise IP-100,2013-11-02 09:43:00,
2013-11-02 05:49:00,35.7,24.0,28.94,West,270,0.0,3.0,61,0.00,,,0.00,Rainwise IP-100,2013-11-02 09:49:00,
2013-11-02 05:54:00,35.6,24.0,28.94,West,270,0.0,0.0,61,0.00,,,0.00,Rainwise IP-100,2013-11-02 09:54:00,
2013-11-02 05:59:00,35.3,23.0,28.94,West,270,0.0,1.0,61,0.00,,,0.00,Rainwise IP-100,2013-11-02 09:59:00,
2013-11-02 06:04:00,35.3,23.0,28.94,West,270,0.0,2.0,61,0.00,,,0.00,Rainwise IP-100,2013-11-02 10:04:00,
2013-11-02 06:09:00,35.4,23.0,28.94,West,270,2.0,2.0,61,0.00,,,0.00,Rainwise IP-100,2013-11-02 10:09:00,
2013-11-02 06:14:00,35.9,24.0,28.94,West,270,0.0,2.0,60,0.00,,,0.00,Rainwise IP-100,2013-11-02 10:14:00,
2013-11-02 06:19:00,35.9,24.0,28.94,West,270,0.0,2.0,60,0.00,,,0.00,Rainwise IP-100,2013-11-02 10:19:00,
2013-11-02 06:24:00,36.5,24.0,28.95,West,270,0.0,0.0,58,0.00,,,0.00,Rainwise IP-100,2013-11-02 10:24:00,
2013-11-02 06:30:00,36.9,24.0,28.95,West,270,0.0,0.0,58,0.00,,,0.00,Rainwise IP-100,2013-11-02 10:30:00,
2013-11-02 06:35:00,37.2,24.0,28.95,West,270,0.0,0.0,57,0.00,,,0.00,Rainwise IP-100,2013-11-02 10:35:00,
2013-11-02 06:40:00,37.3,24.0,28.95,West,270,0.0,0.0,57,0.00,,,0.00,Rainwise IP-100,2013-11-02 10:40:00,
2013-11-02 06:45:00,37.3,24.0,28.95,West,270,0.0,2.0,57,0.00,,,0.00,Rainwise IP-100,2013-11-02 10:45:00,
2013-11-02 06:50:00,37.1,24.0,28.95,West,270,0.0,1.0,57,0.00,,,0.00,Rainwise IP-100,2013-11-02 10:50:00,
2013-11-02 06:55:00,36.8,24.0,28.95,West,270,0.0,0.0,57,0.00,,,0.00,Rainwise IP-100,2013-11-02 10:55:00,
2013-11-02 07:00:00,36.4,23.0,28.95,West,270,0.0,2.0,59,0.00,,,0.00,Rainwise IP-100,2013-11-02 11:00:00,
2013-11-02 07:06:00,36.0,24.0,28.95,West,270,1.0,3.0,60,0.00,,,0.00,Rainwise IP-100,2013-11-02 11:06:00,
2013-11-02 07:11:00,35.8,24.0,28.95,West,270,0.0,3.0,60,0.00,,,0.00,Rainwise IP-100,2013-11-02 11:11:00,
2013-11-02 07:16:00,35.5,24.0,28.95,West,270,0.0,3.0,61,0.00,,,0.00,Rainwise IP-100,2013-11-02 11:16:00,
2013-11-02 07:21:00,35.2,23.0,28.95,West,270,0.0,2.0,61,0.00,,,0.00,Rainwise IP-100,2013-11-02 11:21:00,
2013-11-02 07:26:00,34.9,23.0,28.95,West,270,1.0,2.0,60,0.00,,,0.00,Rainwise IP-100,2013-11-02 11:26:00,
2013-11-02 07:31:00,34.8,23.0,28.95,West,270,0.0,3.0,60,0.00,,,0.00,Rainwise IP-100,2013-11-02 11:31:00,
2013-11-02 07:36:00,35.1,23.0,28.95,West,270,0.0,1.0,60,0.00,,,0.00,Rainwise IP-100,2013-11-02 11:36:00,
2013-11-02 07:41:00,35.7,24.0,28.95,West,270,1.0,3.0,61,0.00,,,0.00,Rainwise IP-100,2013-11-02 11:41:00,
2013-11-02 07:47:00,36.4,24.0,28.95,West,270,1.0,2.0,60,0.00,,,0.00,Rainwise IP-100,2013-11-02 11:47:00,
2013-11-02 07:52:00,37.3,24.0,28.96,West,270,0.0,2.0,59,0.00,,,0.00,Rainwise IP-100,2013-11-02 11:52:00,
2013-11-02 07:57:00,38.2,24.0,28.96,West,270,0.0,0.0,57,0.00,,,0.00,Rainwise IP-100,2013-11-02 11:57:00,
2013-11-02 08:02:00,38.9,24.0,28.96,West,270,0.0,0.0,56,0.00,,,0.00,Rainwise IP-100,2013-11-02 12:02:00,
2013-11-02 08:07:00,39.9,26.0,28.96,West,270,0.0,0.0,54,0.00,,,0.00,Rainwise IP-100,2013-11-02 12:07:00,
2013-11-02 08:12:00,40.6,26.0,28.97,West,270,0.0,0.0,54,0.00,,,0.00,Rainwise IP-100,2013-11-02 12:12:00,
2013-11-02 08:17:00,40.8,26.0,28.97,West,270,0.0,0.0,53,0.00,,,0.00,Rainwise IP-100,2013-11-02 12:17:00,
2013-11-02 08:23:00,40.9,26.0,28.97,NE,45,4.0,4.0,55,0.00,,,0.00,Rainwise IP-100,2013-11-02 12:23:00,
2013-11-02 08:28:00,40.9,26.0,28.97,NE,45,0.0,3.0,54,0.00,,,0.00,Rainwise IP-100,2013-11-02 12:28:00,
2013-11-02 08:33:00,40.9,26.0,28.97,NE,45,0.0,2.0,53,0.00,,,0.00,Rainwise IP-100,2013-11-02 12:33:00,
2013-11-02 08:38:00,41.0,26.0,28.97,NE,45,0.0,0.0,52,0.00,,,0.00,Rainwise IP-100,2013-11-02 12:38:00,
2013-11-02 08:43:00,41.5,26.0,28.97,NE,45,0.0,0.0,51,0.00,,,0.00,Rainwise IP-100,2013-11-02 12:43:00,
2013-11-02 08:48:00,41.6,26.0,28.97,NE,45,0.0,0.0,51,0.00,,,0.00,Rainwise IP-100,2013-11-02 12:48:00,
2013-11-02 08:53:00,41.9,26.0,28.98,NE,45,0.0,0.0,50,0.00,,,0.00,Rainwise IP-100,2013-11-02 12:53:00,
2013-11-02 08:58:00,42.2,26.0,28.98,East,90,2.0,3.0,50,0.00,,,0.00,Rainwise IP-100,2013-11-02 12:58:00,
2013-11-02 09:04:00,42.2,26.0,28.98,East,90,0.0,2.0,50,0.00,,,0.00,Rainwise IP-100,2013-11-02 13:04:00,
2013-11-02 09:09:00,42.3,24.0,28.98,ESE,112,2.0,4.0,49,0.00,,,0.00,Rainwise IP-100,2013-11-02 13:09:00,
2013-11-02 09:14:00,42.3,24.0,28.98,East,90,2.0,3.0,49,0.00,,,0.00,Rainwise IP-100,2013-11-02 13:14:00,
2013-11-02 09:19:00,42.3,24.0,28.98,ENE,67,1.0,4.0,49,0.00,,,0.00,Rainwise IP-100,2013-11-02 13:19:00,
2013-11-02 09:24:00,42.4,24.0,28.98,ENE,67,0.0,3.0,49,0.00,,,0.00,Rainwise IP-100,2013-11-02 13:24:00,
2013-11-02 09:29:00,42.6,24.0,28.98,ENE,67,0.0,1.0,48,0.00,,,0.00,Rainwise IP-100,2013-11-02 13:29:00,
2013-11-02 09:34:00,42.8,24.0,28.98,East,90,2.0,3.0,47,0.00,,,0.00,Rainwise IP-100,2013-11-02 13:34:00,
2013-11-02 09:40:00,43.2,24.0,28.98,ESE,112,3.0,4.0,47,0.00,,,0.00,Rainwise IP-100,2013-11-02 13:40:00,
2013-11-02 09:45:00,43.6,26.0,28.98,East,90,2.0,5.0,48,0.00,,,0.00,Rainwise IP-100,2013-11-02 13:45:00,
2013-11-02 09:50:00,43.9,26.0,28.97,NE,45,2.0,3.0,48,0.00,,,0.00,Rainwise IP-100,2013-11-02 13:50:00,
2013-11-02 09:55:00,44.5,26.0,28.97,NNE,22,0.0,5.0,47,0.00,,,0.00,Rainwise IP-100,2013-11-02 13:55:00,
2013-11-02 10:00:00,44.9,26.0,28.97,East,90,1.0,4.0,48,0.00,,,0.00,Rainwise IP-100,2013-11-02 14:00:00,
2013-11-02 10:05:00,45.8,29.0,28.97,ENE,67,3.0,4.0,50,0.00,,,0.00,Rainwise IP-100,2013-11-02 14:05:00,
2013-11-02 10:10:00,46.3,29.0,28.98,ESE,112,2.0,4.0,50,0.00,,,0.00,Rainwise IP-100,2013-11-02 14:10:00,
2013-11-02 10:15:00,46.5,29.0,28.98,ENE,67,3.0,5.0,51,0.00,,,0.00,Rainwise IP-100,2013-11-02 14:15:00,
2013-11-02 10:21:00,46.8,29.0,28.98,East,90,3.0,5.0,50,0.00,,,0.00,Rainwise IP-100,2013-11-02 14:21:00,
2013-11-02 10:24:00,47.2,31.0,28.98,East,90,2.0,5.0,52,0.00,,,0.00,Rainwise IP-100,2013-11-02 14:24:00,
2013-11-02 10:30:00,48.5,33.0,28.97,NE,45,3.0,6.0,55,0.00,,,0.00,Rainwise IP-100,2013-11-02 14:30:00,
2013-11-02 10:35:00,49.2,36.0,28.98,ENE,67,3.0,6.0,60,0.00,,,0.00,Rainwise IP-100,2013-11-02 14:35:00,
2013-11-02 10:40:00,50.1,35.0,28.98,NW,315,0.0,6.0,55,0.00,,,0.00,Rainwise IP-100,2013-11-02 14:40:00,
2013-11-02 10:45:00,51.4,36.0,28.98,ENE,67,0.0,5.0,55,0.00,,,0.00,Rainwise IP-100,2013-11-02 14:45:00,
2013-11-02 10:50:00,52.5,39.0,28.98,East,90,5.0,6.0,61,0.00,,,0.00,Rainwise IP-100,2013-11-02 14:50:00,
2013-11-02 10:55:00,52.7,43.0,28.98,ENE,67,4.0,7.0,70,0.00,,,0.00,Rainwise IP-100,2013-11-02 14:55:00,
2013-11-02 11:00:00,52.9,44.0,28.99,NE,45,4.0,7.0,73,0.00,,,0.00,Rainwise IP-100,2013-11-02 15:00:00,
2013-11-02 11:05:00,53.3,46.0,28.98,NE,45,6.0,7.0,78,0.00,,,0.00,Rainwise IP-100,2013-11-02 15:05:00,
2013-11-02 11:10:00,53.9,48.0,28.98,SE,135,1.0,7.0,80,0.00,,,0.00,Rainwise IP-100,2013-11-02 15:10:00,
2013-11-02 11:15:00,54.5,50.0,28.99,ENE,67,1.0,7.0,85,0.00,,,0.00,Rainwise IP-100,2013-11-02 15:15:00,
2013-11-02 11:20:00,55.1,50.0,28.98,East,90,3.0,6.0,85,0.00,,,0.00,Rainwise IP-100,2013-11-02 15:20:00,
2013-11-02 11:26:00,55.9,53.0,28.99,ENE,67,2.0,6.0,88,0.00,,,0.00,Rainwise IP-100,2013-11-02 15:26:00,
2013-11-02 11:31:00,56.3,53.0,28.98,ESE,112,2.0,6.0,88,0.00,,,0.00,Rainwise IP-100,2013-11-02 15:31:00,
2013-11-02 11:36:00,56.3,52.0,28.98,ENE,67,5.0,7.0,86,0.00,,,0.00,Rainwise IP-100,2013-11-02 15:36:00,
2013-11-02 11:41:00,56.9,54.0,28.98,East,90,0.0,7.0,89,0.00,,,0.00,Rainwise IP-100,2013-11-02 15:41:00,
2013-11-02 11:46:00,57.8,51.0,28.98,East,90,4.0,6.0,79,0.00,,,0.00,Rainwise IP-100,2013-11-02 15:46:00,
2013-11-02 11:51:00,58.3,51.0,28.98,SE,135,3.0,6.0,77,0.00,,,0.00,Rainwise IP-100,2013-11-02 15:51:00,
2013-11-02 11:56:00,58.5,50.0,28.98,East,90,2.0,10.0,73,0.00,,,0.00,Rainwise IP-100,2013-11-02 15:56:00,
2013-11-02 12:02:00,59.6,49.0,28.98,WSW,247,7.0,7.0,69,0.00,,,0.00,Rainwise IP-100,2013-11-02 16:02:00,
2013-11-02 12:07:00,60.1,48.0,28.98,SSW,202,4.0,7.0,65,0.00,,,0.00,Rainwise IP-100,2013-11-02 16:07:00,
2013-11-02 12:12:00,60.4,47.0,28.98,South,180,7.0,7.0,60,0.00,,,0.00,Rainwise IP-100,2013-11-02 16:12:00,
2013-11-02 12:17:00,61.0,46.0,28.97,WSW,247,3.0,7.0,57,0.00,,,0.00,Rainwise IP-100,2013-11-02 16:17:00,
2013-11-02 12:22:00,61.6,50.0,28.97,SSE,157,6.0,6.0,67,0.00,,,0.00,Rainwise IP-100,2013-11-02 16:22:00,
2013-11-02 12:27:00,61.6,48.0,28.97,WNW,292,2.0,6.0,62,0.00,,,0.00,Rainwise IP-100,2013-11-02 16:27:00,
2013-11-02 12:32:00,61.1,47.0,28.97,NW,315,3.0,7.0,61,0.00,,,0.00,Rainwise IP-100,2013-11-02 16:32:00,
2013-11-02 12:37:00,60.7,45.0,28.97,ENE,67,6.0,6.0,57,0.00,,,0.00,Rainwise IP-100,2013-11-02 16:37:00,
2013-11-02 12:43:00,60.4,47.0,28.97,ENE,67,6.0,8.0,61,0.00,,,0.00,Rainwise IP-100,2013-11-02 16:43:00,
2013-11-02 12:48:00,60.6,47.0,28.97,ENE,67,6.0,7.0,62,0.00,,,0.00,Rainwise IP-100,2013-11-02 16:48:00,
2013-11-02 12:53:00,60.9,49.0,28.97,East,90,2.0,9.0,65,0.00,,,0.00,Rainwise IP-100,2013-11-02 16:53:00,
2013-11-02 12:58:00,61.3,47.0,28.96,ENE,67,6.0,7.0,59,0.00,,,0.00,Rainwise IP-100,2013-11-02 16:58:00,
2013-11-02 13:03:00,60.8,46.0,28.96,East,90,4.0,10.0,59,0.00,,,0.00,Rainwise IP-100,2013-11-02 17:03:00,
2013-11-02 13:08:00,60.3,46.0,28.96,East,90,0.0,7.0,59,0.00,,,0.00,Rainwise IP-100,2013-11-02 17:08:00,
2013-11-02 13:13:00,59.9,46.0,28.96,ESE,112,6.0,6.0,60,0.00,,,0.00,Rainwise IP-100,2013-11-02 17:13:00,
2013-11-02 13:19:00,59.9,45.0,28.95,ESE,112,3.0,6.0,58,0.00,,,0.00,Rainwise IP-100,2013-11-02 17:19:00,
2013-11-02 13:24:00,60.4,46.0,28.95,ESE,112,3.0,5.0,59,0.00,,,0.00,Rainwise IP-100,2013-11-02 17:24:00,
2013-11-02 13:29:00,61.3,47.0,28.95,ENE,67,5.0,6.0,60,0.00,,,0.00,Rainwise IP-100,2013-11-02 17:29:00,
2013-11-02 13:34:00,62.4,47.0,28.95,SE,135,2.0,6.0,57,0.00,,,0.00,Rainwise IP-100,2013-11-02 17:34:00,
2013-11-02 13:39:00,62.4,46.0,28.95,East,90,5.0,6.0,55,0.00,,,0.00,Rainwise IP-100,2013-11-02 17:39:00,
2013-11-02 13:44:00,62.2,47.0,28.95,North,360,3.0,6.0,57,0.00,,,0.00,Rainwise IP-100,2013-11-02 17:44:00,
2013-11-02 13:49:00,61.7,45.0,28.95,NE,45,4.0,7.0,54,0.00,,,0.00,Rainwise IP-100,2013-11-02 17:49:00,
2013-11-02 13:54:00,60.5,45.0,28.95,NE,45,3.0,7.0,57,0.00,,,0.00,Rainwise IP-100,2013-11-02 17:54:00,
2013-11-02 14:00:00,60.5,47.0,28.95,NE,45,2.0,5.0,60,0.00,,,0.00,Rainwise IP-100,2013-11-02 18:00:00,
2013-11-02 14:05:00,60.4,46.0,28.95,ENE,67,8.0,9.0,59,0.00,,,0.00,Rainwise IP-100,2013-11-02 18:05:00,
2013-11-02 14:10:00,60.3,47.0,28.95,East,90,2.0,8.0,61,0.00,,,0.00,Rainwise IP-100,2013-11-02 18:10:00,
2013-11-02 14:15:00,60.3,46.0,28.95,SSW,202,3.0,5.0,60,0.00,,,0.00,Rainwise IP-100,2013-11-02 18:15:00,
2013-11-02 14:20:00,59.9,46.0,28.95,SE,135,0.0,6.0,59,0.00,,,0.00,Rainwise IP-100,2013-11-02 18:20:00,
2013-11-02 14:25:00,59.6,46.0,28.95,ENE,67,1.0,3.0,60,0.00,,,0.00,Rainwise IP-100,2013-11-02 18:25:00,
2013-11-02 14:30:00,59.3,45.0,28.95,ENE,67,1.0,2.0,60,0.00,,,0.00,Rainwise IP-100,2013-11-02 18:30:00,
2013-11-02 14:36:00,59.3,46.0,28.95,ENE,67,0.0,2.0,62,0.00,,,0.00,Rainwise IP-100,2013-11-02 18:36:00,
2013-11-02 14:41:00,59.3,47.0,28.95,ENE,67,0.0,0.0,64,0.00,,,0.00,Rainwise IP-100,2013-11-02 18:41:00,
2013-11-02 14:46:00,59.2,47.0,28.94,ENE,67,0.0,0.0,64,0.00,,,0.00,Rainwise IP-100,2013-11-02 18:46:00,
2013-11-02 14:51:00,59.2,48.0,28.94,ENE,67,0.0,0.0,67,0.00,,,0.00,Rainwise IP-100,2013-11-02 18:51:00,
2013-11-02 14:56:00,59.1,48.0,28.94,ENE,67,0.0,0.0,68,0.00,,,0.00,Rainwise IP-100,2013-11-02 18:56:00,
2013-11-02 15:01:00,58.9,47.0,28.94,North,360,0.0,1.0,64,0.00,,,0.00,Rainwise IP-100,2013-11-02 19:01:00,
2013-11-02 15:06:00,58.8,47.0,28.95,WNW,292,2.0,5.0,66,0.00,,,0.00,Rainwise IP-100,2013-11-02 19:06:00,
2013-11-02 15:11:00,58.5,50.0,28.94,WNW,292,1.0,4.0,71,0.00,,,0.00,Rainwise IP-100,2013-11-02 19:11:00,
2013-11-02 15:17:00,58.3,49.0,28.94,WNW,292,0.0,2.0,71,0.00,,,0.00,Rainwise IP-100,2013-11-02 19:17:00,
2013-11-02 15:22:00,57.9,50.0,28.94,NNE,22,0.0,3.0,73,0.00,,,0.00,Rainwise IP-100,2013-11-02 19:22:00,
2013-11-02 15:27:00,57.9,50.0,28.95,NNE,22,0.0,0.0,76,0.00,,,0.00,Rainwise IP-100,2013-11-02 19:27:00,
2013-11-02 15:32:00,57.9,54.0,28.95,NNE,22,0.0,0.0,88,0.00,,,0.00,Rainwise IP-100,2013-11-02 19:32:00,
2013-11-02 15:37:00,57.6,50.0,28.95,NNE,22,0.0,0.0,78,0.00,,,0.00,Rainwise IP-100,2013-11-02 19:37:00,
2013-11-02 15:42:00,57.4,50.0,28.95,NNE,22,0.0,4.0,76,0.00,,,0.00,Rainwise IP-100,2013-11-02 19:42:00,
2013-11-02 15:47:00,57.4,50.0,28.95,NNE,22,0.0,2.0,74,0.00,,,0.00,Rainwise IP-100,2013-11-02 19:47:00,
2013-11-02 15:53:00,57.4,51.0,28.95,NNE,22,0.0,0.0,80,0.00,,,0.00,Rainwise IP-100,2013-11-02 19:53:00,
2013-11-02 15:58:00,56.9,52.0,28.95,NNE,22,0.0,0.0,84,0.00,,,0.00,Rainwise IP-100,2013-11-02 19:58:00,
2013-11-02 16:03:00,56.6,46.0,28.95,NW,315,2.0,6.0,67,0.00,,,0.00,Rainwise IP-100,2013-11-02 20:03:00,
2013-11-02 16:08:00,56.8,46.0,28.94,WNW,292,2.0,6.0,68,0.00,,,0.00,Rainwise IP-100,2013-11-02 20:08:00,
2013-11-02 16:13:00,56.9,46.0,28.95,WNW,292,3.0,6.0,66,0.00,,,0.00,Rainwise IP-100,2013-11-02 20:13:00,
2013-11-02 16:18:00,56.9,46.0,28.95,NW,315,3.0,6.0,65,0.00,,,0.00,Rainwise IP-100,2013-11-02 20:18:00,
2013-11-02 16:23:00,57.3,43.0,28.95,NW,315,7.0,14.0,60,0.00,,,0.00,Rainwise IP-100,2013-11-02 20:23:00,
2013-11-02 16:28:00,57.3,44.0,28.95,WSW,247,5.0,11.0,62,0.00,,,0.00,Rainwise IP-100,2013-11-02 20:28:00,
2013-11-02 16:34:00,57.9,43.0,28.95,WNW,292,6.0,9.0,58,0.00,,,0.00,Rainwise IP-100,2013-11-02 20:34:00,
2013-11-02 16:39:00,57.8,44.0,28.95,West,270,6.0,9.0,60,0.00,,,0.00,Rainwise IP-100,2013-11-02 20:39:00,
2013-11-02 16:44:00,56.9,44.0,28.95,WNW,292,6.0,9.0,62,0.00,,,0.00,Rainwise IP-100,2013-11-02 20:44:00,
2013-11-02 16:49:00,56.1,44.0,28.95,West,270,2.0,10.0,64,0.00,,,0.00,Rainwise IP-100,2013-11-02 20:49:00,
2013-11-02 16:54:00,55.4,44.0,28.95,NNW,337,3.0,10.0,66,0.00,,,0.00,Rainwise IP-100,2013-11-02 20:54:00,
2013-11-02 16:59:00,55.2,45.0,28.94,SW,225,5.0,10.0,68,0.00,,,0.00,Rainwise IP-100,2013-11-02 20:59:00,
2013-11-02 17:04:00,55.1,45.0,28.95,SW,225,3.0,9.0,68,0.00,,,0.00,Rainwise IP-100,2013-11-02 21:04:00,
2013-11-02 17:10:00,54.9,45.0,28.95,SW,225,0.0,6.0,69,0.00,,,0.00,Rainwise IP-100,2013-11-02 21:10:00,
2013-11-02 17:15:00,54.7,46.0,28.94,NW,315,3.0,7.0,71,0.00,,,0.00,Rainwise IP-100,2013-11-02 21:15:00,
2013-11-02 17:20:00,54.5,46.0,28.95,WNW,292,3.0,5.0,71,0.00,,,0.00,Rainwise IP-100,2013-11-02 21:20:00,
2013-11-02 17:25:00,54.4,46.0,28.95,SSW,202,5.0,6.0,71,0.00,,,0.00,Rainwise IP-100,2013-11-02 21:25:00,
2013-11-02 17:30:00,54.3,46.0,28.96,North,360,2.0,6.0,73,0.00,,,0.00,Rainwise IP-100,2013-11-02 21:30:00,
2013-11-02 17:35:00,54.2,46.0,28.96,WNW,292,5.0,8.0,73,0.00,,,0.00,Rainwise IP-100,2013-11-02 21:35:00,
2013-11-02 17:40:00,54.4,46.0,28.96,NW,315,1.0,11.0,73,0.00,,,0.00,Rainwise IP-100,2013-11-02 21:40:00,
2013-11-02 17:45:00,54.3,46.0,28.96,WSW,247,2.0,8.0,74,0.00,,,0.00,Rainwise IP-100,2013-11-02 21:45:00,
2013-11-02 17:51:00,54.3,46.0,28.96,WSW,247,6.0,11.0,74,0.00,,,0.00,Rainwise IP-100,2013-11-02 21:51:00,
2013-11-02 17:56:00,54.3,46.0,28.96,West,270,6.0,13.0,74,0.00,,,0.00,Rainwise IP-100,2013-11-02 21:56:00,
2013-11-02 18:01:00,54.1,46.0,28.96,NW,315,7.0,13.0,74,0.00,,,0.00,Rainwise IP-100,2013-11-02 22:01:00,
2013-11-02 18:06:00,53.9,47.0,28.97,WSW,247,9.0,12.0,78,0.00,,,0.00,Rainwise IP-100,2013-11-02 22:06:00,
2013-11-02 18:11:00,53.3,47.0,28.97,West,270,8.0,11.0,81,0.00,,,0.00,Rainwise IP-100,2013-11-02 22:11:00,
2013-11-02 18:16:00,52.8,49.0,28.97,WSW,247,7.0,16.0,87,0.00,,,0.00,Rainwise IP-100,2013-11-02 22:16:00,
2013-11-02 18:21:00,51.8,50.0,28.98,West,270,3.0,10.0,92,0.00,,,0.00,Rainwise IP-100,2013-11-02 22:21:00,
2013-11-02 18:27:00,51.2,50.0,28.98,South,180,3.0,9.0,95,0.06,,,0.01,Rainwise IP-100,2013-11-02 22:27:00,
2013-11-02 18:32:00,50.6,50.0,28.98,WSW,247,0.0,10.0,99,0.12,,,0.02,Rainwise IP-100,2013-11-02 22:32:00,
2013-11-02 18:37:00,50.0,50.0,28.99,WSW,247,1.0,5.0,99,0.12,,,0.03,Rainwise IP-100,2013-11-02 22:37:00,
2013-11-02 18:42:00,49.4,48.0,28.99,South,180,1.0,6.0,98,0.12,,,0.04,Rainwise IP-100,2013-11-02 22:42:00,
2013-11-02 18:47:00,48.9,48.0,28.99,WSW,247,1.0,5.0,96,0.12,,,0.05,Rainwise IP-100,2013-11-02 22:47:00,
2013-11-02 18:52:00,48.6,48.0,28.99,SW,225,5.0,5.0,98,0.12,,,0.06,Rainwise IP-100,2013-11-02 22:52:00,
2013-11-02 18:57:00,48.3,46.0,29.00,WSW,247,0.0,6.0,92,0.12,,,0.08,Rainwise IP-100,2013-11-02 22:57:00,
2013-11-02 19:02:00,48.1,47.0,28.99,SW,225,2.0,7.0,94,0.12,,,0.08,Rainwise IP-100,2013-11-02 23:02:00,
2013-11-02 19:08:00,48.0,40.0,28.99,WNW,292,0.0,6.0,74,0.06,,,0.09,Rainwise IP-100,2013-11-02 23:08:00,
2013-11-02 19:13:00,47.8,42.0,29.00,SE,135,0.0,3.0,83,0.06,,,0.09,Rainwise IP-100,2013-11-02 23:13:00,
2013-11-02 19:18:00,47.7,42.0,29.00,SE,135,0.0,1.0,83,0.00,,,0.09,Rainwise IP-100,2013-11-02 23:18:00,
2013-11-02 19:23:00,47.5,43.0,29.00,SE,135,0.0,0.0,85,0.00,,,0.09,Rainwise IP-100,2013-11-02 23:23:00,
2013-11-02 19:28:00,47.3,42.0,29.00,SE,135,0.0,0.0,83,0.00,,,0.09,Rainwise IP-100,2013-11-02 23:28:00,
2013-11-02 19:33:00,47.2,42.0,29.00,SE,135,0.0,0.0,85,0.00,,,0.09,Rainwise IP-100,2013-11-02 23:33:00,
2013-11-02 19:38:00,46.9,43.0,29.00,ESE,112,0.0,0.0,87,0.00,,,0.09,Rainwise IP-100,2013-11-02 23:38:00,
2013-11-02 19:44:00,46.7,42.0,29.00,ESE,112,0.0,0.0,84,0.00,,,0.09,Rainwise IP-100,2013-11-02 23:44:00,
2013-11-02 19:49:00,46.4,40.0,29.00,ESE,112,0.0,0.0,82,0.00,,,0.09,Rainwise IP-100,2013-11-02 23:49:00,
2013-11-02 19:54:00,46.3,40.0,29.00,ENE,67,0.0,1.0,81,0.00,,,0.09,Rainwise IP-100,2013-11-02 23:54:00,
2013-11-02 19:59:00,46.2,39.0,29.00,WNW,292,2.0,3.0,76,0.00,,,0.09,Rainwise IP-100,2013-11-02 23:59:00,
2013-11-02 20:04:00,46.0,37.0,29.00,WNW,292,0.0,2.0,71,0.00,,,0.09,Rainwise IP-100,2013-11-03 00:04:00,
2013-11-02 20:09:00,45.7,37.0,29.00,WNW,292,0.0,0.0,71,0.00,,,0.09,Rainwise IP-100,2013-11-03 00:09:00,
2013-11-02 20:14:00,45.3,37.0,29.01,WNW,292,0.0,1.0,72,0.00,,,0.09,Rainwise IP-100,2013-11-03 00:14:00,
2013-11-02 20:19:00,44.9,37.0,29.01,WNW,292,0.0,1.0,73,0.00,,,0.09,Rainwise IP-100,2013-11-03 00:19:00,
2013-11-02 20:25:00,44.7,37.0,29.01,WNW,292,0.0,2.0,73,0.00,,,0.09,Rainwise IP-100,2013-11-03 00:25:00,
2013-11-02 20:30:00,44.7,36.0,29.02,WNW,292,0.0,0.0,71,0.00,,,0.09,Rainwise IP-100,2013-11-03 00:30:00,
2013-11-02 20:35:00,45.2,31.0,29.01,WNW,292,0.0,3.0,57,0.00,,,0.09,Rainwise IP-100,2013-11-03 00:35:00,
2013-11-02 20:40:00,45.7,31.0,29.01,WNW,292,0.0,1.0,55,0.00,,,0.09,Rainwise IP-100,2013-11-03 00:40:00,
2013-11-02 20:45:00,46.0,28.0,29.01,WNW,292,0.0,3.0,48,0.00,,,0.09,Rainwise IP-100,2013-11-03 00:45:00,
2013-11-02 20:50:00,46.3,28.0,29.01,WNW,292,0.0,0.0,49,0.00,,,0.09,Rainwise IP-100,2013-11-03 00:50:00,
2013-11-02 20:55:00,46.2,28.0,29.02,WNW,292,0.0,0.0,48,0.00,,,0.09,Rainwise IP-100,2013-11-03 00:55:00,
2013-11-02 21:01:00,46.1,28.0,29.02,WNW,292,0.0,0.0,48,0.00,,,0.09,Rainwise IP-100,2013-11-03 01:01:00,
2013-11-02 21:06:00,45.9,28.0,29.02,WNW,292,0.0,0.0,48,0.00,,,0.09,Rainwise IP-100,2013-11-03 01:06:00,
2013-11-02 21:11:00,45.6,28.0,29.03,WNW,292,0.0,0.0,48,0.00,,,0.09,Rainwise IP-100,2013-11-03 01:11:00,
2013-11-02 21:16:00,45.4,26.0,29.03,WNW,292,0.0,0.0,48,0.00,,,0.09,Rainwise IP-100,2013-11-03 01:16:00,
2013-11-02 21:21:00,45.3,26.0,29.03,WNW,292,3.0,4.0,47,0.00,,,0.09,Rainwise IP-100,2013-11-03 01:21:00,
2013-11-02 21:26:00,45.4,26.0,29.04,NNW,337,3.0,6.0,46,0.00,,,0.09,Rainwise IP-100,2013-11-03 01:26:00,
2013-11-02 21:31:00,45.4,26.0,29.04,NNW,337,0.0,7.0,45,0.00,,,0.09,Rainwise IP-100,2013-11-03 01:31:00,
2013-11-02 21:36:00,45.2,26.0,29.04,NNW,337,2.0,4.0,46,0.00,,,0.09,Rainwise IP-100,2013-11-03 01:36:00,
2013-11-02 21:42:00,44.8,26.0,29.04,NNE,22,0.0,6.0,46,0.00,,,0.09,Rainwise IP-100,2013-11-03 01:42:00,
2013-11-02 21:47:00,44.9,26.0,29.04,NNW,337,4.0,7.0,46,0.00,,,0.09,Rainwise IP-100,2013-11-03 01:47:00,
2013-11-02 21:52:00,45.0,26.0,29.04,NE,45,5.0,8.0,45,0.00,,,0.09,Rainwise IP-100,2013-11-03 01:52:00,
2013-11-02 21:57:00,45.1,26.0,29.04,SW,225,3.0,9.0,46,0.00,,,0.09,Rainwise IP-100,2013-11-03 01:57:00,
2013-11-02 22:02:00,45.4,29.0,29.04,West,270,3.0,10.0,52,0.00,,,0.09,Rainwise IP-100,2013-11-03 02:02:00,
2013-11-02 22:07:00,45.5,31.0,29.05,NNW,337,4.0,10.0,55,0.00,,,0.09,Rainwise IP-100,2013-11-03 02:07:00,
2013-11-02 22:12:00,45.6,31.0,29.06,ENE,67,2.0,11.0,56,0.00,,,0.09,Rainwise IP-100,2013-11-03 02:12:00,
2013-11-02 22:18:00,45.4,31.0,29.07,NE,45,8.0,8.0,56,0.00,,,0.09,Rainwise IP-100,2013-11-03 02:18:00,
2013-11-02 22:23:00,45.1,33.0,29.07,NW,315,7.0,10.0,64,0.00,,,0.09,Rainwise IP-100,2013-11-03 02:23:00,
2013-11-02 22:28:00,44.4,39.0,29.07,NW,315,5.0,12.0,83,0.00,,,0.09,Rainwise IP-100,2013-11-03 02:28:00,
2013-11-02 22:33:00,44.1,41.0,29.07,NNW,337,6.0,10.0,90,0.00,,,0.09,Rainwise IP-100,2013-11-03 02:33:00,
2013-11-02 22:38:00,43.9,42.0,29.07,WNW,292,2.0,9.0,92,0.00,,,0.09,Rainwise IP-100,2013-11-03 02:38:00,
2013-11-02 22:43:00,43.7,42.0,29.07,NNE,22,1.0,7.0,93,0.00,,,0.09,Rainwise IP-100,2013-11-03 02:43:00,
2013-11-02 22:48:00,43.5,42.0,29.07,NE,45,0.0,6.0,93,0.00,,,0.09,Rainwise IP-100,2013-11-03 02:48:00,
2013-11-02 22:53:00,43.4,41.0,29.07,NNE,22,2.0,4.0,93,0.00,,,0.09,Rainwise IP-100,2013-11-03 02:53:00,
2013-11-02 22:59:00,43.4,41.0,29.07,WNW,292,4.0,7.0,94,0.00,,,0.09,Rainwise IP-100,2013-11-03 02:59:00,
2013-11-02 23:04:00,43.5,43.0,29.07,WNW,292,6.0,8.0,96,0.00,,,0.09,Rainwise IP-100,2013-11-03 03:04:00,
2013-11-02 23:09:00,43.4,42.0,29.07,NNE,22,4.0,7.0,96,0.00,,,0.09,Rainwise IP-100,2013-11-03 03:09:00,
2013-11-02 23:14:00,43.4,42.0,29.07,NW,315,4.0,8.0,96,0.00,,,0.09,Rainwise IP-100,2013-11-03 03:14:00,
2013-11-02 23:19:00,43.2,42.0,29.07,NW,315,5.0,9.0,96,0.00,,,0.09,Rainwise IP-100,2013-11-03 03:19:00,
2013-11-02 23:24:00,43.1,42.0,29.07,NNE,22,4.0,9.0,96,0.00,,,0.09,Rainwise IP-100,2013-11-03 03:24:00,
2013-11-02 23:29:00,43.0,42.0,29.08,NW,315,4.0,9.0,96,0.00,,,0.09,Rainwise IP-100,2013-11-03 03:29:00,
2013-11-02 23:35:00,43.2,42.0,29.08,North,360,0.0,12.0,98,0.00,,,0.09,Rainwise IP-100,2013-11-03 03:35:00,
2013-11-02 23:40:00,43.0,42.0,29.09,NW,315,6.0,8.0,98,0.00,,,0.09,Rainwise IP-100,2013-11-03 03:40:00,
2013-11-02 23:45:00,42.9,42.0,29.09,NW,315,3.0,8.0,98,0.00,,,0.09,Rainwise IP-100,2013-11-03 03:45:00,
2013-11-02 23:50:00,42.6,42.0,29.10,NNE,22,2.0,7.0,97,0.00,,,0.09,Rainwise IP-100,2013-11-03 03:50:00,
2013-11-02 23:55:00,42.4,41.0,29.10,NNE,22,6.0,11.0,96,0.00,,,0.09,Rainwise IP-100,2013-11-03 03:55:00,